GW2041 Weather Reports


Display with metric or nautical units.
time (UTC)temp
F
wind
direction
speed
MPH
gust
MPH
rain 1hr
in
rain 24hr
in
rain mn
in
humidity
%
barometer
mb
20260906181448 66 0 0.0 2.0 0.00 0.00 0.00 59 1021.9
20260906180447 67 0.0 0.0 0.00 0.00 0.00 57 1021.9
20260906175459 67 0.0 0.0 0.00 0.00 0.00 56 1022.3
20260906174500 68 0.0 0.0 0.00 0.00 0.00 54 1022.3
20260906173945 69 0.0 0.0 0.00 0.00 0.00 53 1022.7
20260906172459 71 0.0 0.0 0.00 0.00 0.00 52 1022.7
20260906171939 71 0.0 0.0 0.00 0.00 0.00 52 1022.7
20260906170959 71 0.0 0.0 0.00 0.00 0.00 52 1022.7
20260906165936 71 0.0 0.0 0.00 0.00 0.00 52 1022.9
20260906164923 71 0.0 0.0 0.00 0.00 0.00 51 1022.9
20260906163938 72 0.0 0.0 0.00 0.00 0.00 50 1023.1
20260906162449 73 0.0 0.0 0.00 0.00 0.00 49 1023.1
20260906161445 74 0.0 0.0 0.00 0.00 0.00 49 1023.8
20260906160440 73 0.0 0.0 0.00 0.00 0.00 50 1023.8
20260906155442 72 0.0 0.0 0.00 0.00 0.00 50 1023.5
20260906154441 72 0.0 0.0 0.00 0.00 0.00 50 1023.5
20260906153440 72 0.0 0.0 0.00 0.00 0.00 50 1024.1
20260906152441 73 0.0 0.0 0.00 0.00 0.00 50 1024.1
20260906151440 72 0.0 0.0 0.00 0.00 0.00 50 1023.6
20260906150915 73 0.0 0.0 0.00 0.00 0.00 50 1023.6
20260906145436 73 0.0 0.0 0.00 0.00 0.00 49 1023.6
20260906144433 73 0.0 0.0 0.00 0.00 0.00 49 1023.6
20260906143434 73 0.0 0.0 0.00 0.00 0.00 50 1024.2
20260906142434 73 0.0 0.0 0.00 0.00 0.00 49 1024.2
20260906141434 72 0.0 0.0 0.00 0.00 0.00 50 1023.7
20260906140908 72 0.0 0.0 0.00 0.00 0.00 52 1023.7
20260906135440 72 0.0 0.0 0.00 0.00 0.00 52 1024.2
20260906134431 72 0.0 0.0 0.00 0.00 0.00 52 1024.2
20260906133435 73 0.0 0.0 0.00 0.00 0.00 51 1024.2
20260906132435 72 0.0 0.0 0.00 0.00 0.00 51 1024.2
20260906131421 73 0.0 0.0 0.00 0.00 0.00 51 1024.1
20260906130821 72 0.0 0.0 0.00 0.00 0.00 52 1024.1
20260906125818 72 0.0 0.0 0.00 0.00 0.00 53 1024.2
20260906124346 72 0.0 0.0 0.00 0.00 0.00 53 1024.2
20260906123345 72 0.0 0.0 0.00 0.00 0.00 52 1023.9
20260906122345 72 0.0 0.0 0.00 0.00 0.00 52 1023.9
20260906121355 73 0.0 0.0 0.00 0.00 0.00 51 1024.5
20260906120813 73 0.0 0.0 0.00 0.00 0.00 52 1024.5
20260906115338 73 0.0 0.0 0.00 0.00 0.00 53 1024.0
20260906114337 73 0.0 0.0 0.00 0.00 0.00 53 1024.0
20260906113337 74 0.0 0.0 0.00 0.00 0.00 51 1024.4
20260906111337 74 0.0 0.0 0.00 0.00 0.00 55 1024.8
20260906110824 73 0.0 0.0 0.00 0.00 0.00 57 1024.8
20260906105332 71 0.0 0.0 0.00 0.00 0.00 57 1024.8
20260906104325 71 0.0 0.0 0.00 0.00 0.00 58 1024.8
20260906103805 70 0.0 0.0 0.00 0.00 0.00 59 1024.9
20260906102323 70 0.0 0.0 0.00 0.00 0.00 59 1024.9
20260906101323 69 0.0 0.0 0.00 0.00 0.00 59 1024.9
20260906100329 69 0.0 0.0 0.00 0.00 0.00 60 1024.9
20260906095325 71 158 2.0 0.0 0.00 0.00 0.00 57 1025.0
20260906094325 72 158 2.0 0.0 0.00 0.00 0.00 59 1025.0
20260906093328 72 158 2.0 2.0 0.00 0.00 0.00 58 1025.1
20260906092324 74 158 2.0 2.0 0.00 0.00 0.00 58 1025.1
20260906091757 74 158 2.0 4.0 0.00 0.00 0.00 58 1025.1
20260906090329 73 135 2.0 4.0 0.00 0.00 0.00 61 1025.1
20260906085323 73 248 1.0 3.0 0.00 0.00 0.00 63 1025.1
20260906084323 71 180 1.0 4.0 0.00 0.00 0.00 65 1025.1
20260906083329 70 135 2.0 4.0 0.00 0.00 0.00 66 1024.9
20260906082324 69 180 2.0 5.0 0.00 0.00 0.00 68 1024.9
20260906081323 69 180 1.0 2.0 0.00 0.00 0.00 72 1024.9
20260906080328 68 180 1.0 3.0 0.00 0.00 0.00 76 1024.9
20260906075321 67 180 2.0 3.0 0.00 0.00 0.00 78 1025.0
20260906074322 66 180 2.0 4.0 0.00 0.00 0.00 81 1025.0
20260906073325 64 180 1.0 3.0 0.00 0.00 0.00 88 1024.8
20260906072322 60 158 1.0 3.0 0.00 0.00 0.00 92 1024.8
20260906071324 55 203 1.0 3.0 0.00 0.00 0.00 93 1024.9
20260906070324 54 180 1.0 3.0 0.00 0.00 0.00 93 1024.9
20260906065319 52 180 0.0 2.0 0.00 0.00 0.00 94 1024.7
20260906064320 51 180 0.0 0.0 0.00 0.00 0.00 94 1024.7
20260906063325 51 180 0.0 0.0 0.00 0.00 0.00 93 1024.6
20260906062229 50 180 0.0 0.0 0.00 0.00 0.00 94 1024.6
20260906061229 49 180 0.0 0.0 0.00 0.00 0.00 93 1024.5
20260906060230 49 180 0.0 0.0 0.00 0.00 0.00 93 1024.5
20260906055702 49 180 0.0 0.0 0.00 0.00 0.00 93 1024.7
20260906054708 49 180 0.0 1.0 0.00 0.00 0.00 93 1024.7
20260906053229 48 180 0.0 0.0 0.00 0.00 0.00 93 1024.4
20260906052227 48 180 0.0 0.0 0.00 0.00 0.00 92 1024.4
20260906051226 48 180 0.0 0.0 0.00 0.00 0.00 92 1024.5
20260906050712 48 180 0.0 0.0 0.00 0.00 0.00 92 1024.5
20260906045222 49 180 0.0 0.0 0.00 0.00 0.00 92 1024.6
20260906044221 49 180 0.0 0.0 0.00 0.00 0.00 92 1024.6
20260906043223 49 180 0.0 0.0 0.00 0.00 0.00 92 1024.5
20260906042221 49 180 0.0 0.0 0.00 0.00 0.00 92 1024.5
20260906041219 49 180 0.0 0.0 0.00 0.00 0.00 91 1024.4
20260906040218 49 180 0.0 0.0 0.00 0.00 0.00 91 1024.4
20260906035218 50 180 0.0 0.0 0.00 0.00 0.00 91 1024.5
20260906034218 50 180 0.0 0.0 0.00 0.00 0.00 91 1024.5
20260906032219 50 180 0.0 0.0 0.00 0.00 0.00 91 1024.7
20260906031219 50 180 0.0 0.0 0.00 0.00 0.00 91 1024.8
20260906030219 50 180 0.0 2.0 0.00 0.00 0.00 91 1024.8
20260906025223 50 180 0.0 2.0 0.00 0.00 0.00 91 1024.8
20260906024215 49 180 0.0 0.0 0.00 0.00 0.00 91 1024.8
20260906023222 49 180 0.0 0.0 0.00 0.00 0.00 90 1024.9
20260906022218 50 180 0.0 0.0 0.00 0.00 0.00 91 1024.9
20260906021700 50 180 0.0 0.0 0.00 0.00 0.00 90 1024.6
20260906020213 50 180 0.0 0.0 0.00 0.00 0.00 90 1024.6
20260906015708 50 180 0.0 0.0 0.00 0.00 0.00 90 1024.5
20260906014234 50 180 0.0 0.0 0.00 0.00 0.00 90 1024.5
20260906013232 51 180 0.0 0.0 0.00 0.00 0.00 90 1024.4
20260906012233 51 180 0.0 0.0 0.00 0.00 0.00 89 1024.4
20260906011233 51 180 0.0 0.0 0.00 0.00 0.00 89 1024.9
20260906005704 51 248 0.0 1.0 0.00 0.00 0.00 89 1024.7
20260906004234 51 203 0.0 0.0 0.00 0.00 0.00 89 1024.7
20260906003233 51 225 0.0 2.0 0.00 0.00 0.00 89 1024.9
20260906002234 51 180 0.0 2.0 0.00 0.00 0.00 88 1024.9
20260906001719 51 180 0.0 0.0 0.00 0.00 0.00 88 1024.6
20260906000233 52 180 0.0 1.0 0.00 0.00 0.00 88 1024.6
20260905235231 52 270 0.0 0.0 0.00 0.00 0.00 88 1024.6
20260905234716 52 270 0.0 0.0 0.00 0.00 0.00 87 1024.6
20260905233233 53 180 0.0 0.0 0.00 0.00 0.00 87 1024.7
20260905232715 53 203 0.0 2.0 0.00 0.00 0.00 87 1024.7
20260905231233 53 203 0.0 0.0 0.00 0.00 0.00 86 1024.6
20260905230230 53 203 0.0 1.0 0.00 0.00 0.00 86 1024.6
20260905225227 53 203 0.0 0.0 0.00 0.00 0.00 86 1024.7
20260905224226 53 225 0.0 0.0 0.00 0.00 0.00 85 1024.7
20260905223226 54 248 0.0 0.0 0.00 0.00 0.00 85 1024.4
20260905222226 54 225 0.0 0.0 0.00 0.00 0.00 85 1024.4
20260905221222 54 203 0.0 0.0 0.00 0.00 0.00 84 1024.2
20260905220706 55 203 0.0 0.0 0.00 0.00 0.00 84 1024.2
20260905215222 55 270 0.0 2.0 0.00 0.00 0.00 83 1024.1
20260905214220 55 270 0.0 2.0 0.00 0.00 0.00 83 1024.1
20260905213220 55 180 0.0 3.0 0.00 0.00 0.00 82 1023.9
20260905212220 56 248 0.0 2.0 0.00 0.00 0.00 82 1023.9
20260905211226 56 248 0.0 0.0 0.00 0.00 0.00 82 1024.2
20260905210221 56 270 1.0 3.0 0.00 0.00 0.00 81 1024.2
20260905205212 56 270 0.0 3.0 0.00 0.00 0.00 81 1023.9
20260905204219 56 270 0.0 0.0 0.00 0.00 0.00 80 1023.9
20260905203841 56 270 0.0 2.0 0.00 0.00 0.00 80 1024.1
20260905202359 56 248 0.0 0.0 0.00 0.00 0.00 80 1024.1
20260905200401 58 248 0.0 0.0 0.00 0.00 0.00 79 1024.0
20260905195357 58 248 1.0 3.0 0.00 0.00 0.00 78 1023.7
20260905194400 58 248 1.0 1.0 0.00 0.00 0.00 78 1023.7
20260905193400 58 225 0.0 3.0 0.00 0.00 0.00 77 1023.6
20260905192842 59 270 0.0 2.0 0.00 0.00 0.00 77 1023.6
20260905191356 59 248 0.0 0.0 0.00 0.00 0.00 76 1023.5
20260905190355 60 270 0.0 0.0 0.00 0.00 0.00 76 1023.5
20260905185352 60 203 0.0 1.0 0.00 0.00 0.00 74 1023.9
20260905184354 60 315 1.0 3.0 0.00 0.00 0.00 74 1023.9